Weather

DAILY 7 DAY TOTAL
onrain

Note: Some stations are located near irrigated fields and may also report irrigation

Alliston Mount Forest Blyth Guelph Grand Bend Strathroy Woodstock Belmont Simcoe Leamington Chatham West Lorne






Leamington-Base - Historical Weather Data
Date Max Temp (°C) Min Temp (°C) Avg Temp (°C) Rain (mm) 7Day Rain(mm) Total Rain(mm) Avg RH (%)
7/20/2018 30.2 16.9 23.0 4.6 4.8 228.2 81.1
7/19/2018 27.4 13.4 21.3 0.0 0.2 223.6 67.5
7/18/2018 27.9 13.4 20.6 0.0 0.2 223.6 66.8
7/17/2018 28.0 16.2 23.4 0.0 0.2 223.6 61.3
7/16/2018 33.4 21.7 26.6 0.2 0.2 223.6 80.2
7/15/2018 32.9 20.5 26.9 0.0 0.0 223.4 72.8
7/14/2018 33.2 19.5 25.8 0.0 0.0 223.4 75.4
7/13/2018 31.3 15.7 24.3 0.0 0.0 223.4 66.1
7/12/2018 27.2 12.6 21.1 0.0 0.2 223.4 63.9
7/11/2018 28.9 13.7 21.9 0.0 40.8 223.4 57.2
7/10/2018 29.5 17.2 24.1 0.0 40.8 223.4 56.1
7/9/2018 31.6 16.2 24.8 0.0 40.8 223.4 68.8
7/8/2018 28.6 12.7 21.2 0.0 40.8 223.4 66.1
7/7/2018 23.9 10.3 18.6 0.0 40.8 223.4 61.2
7/6/2018 24.8 14.5 21.3 0.2 40.8 223.4 49.5
7/5/2018 34.1 21.8 27.7 40.6 40.6 223.2 78.8
7/4/2018 34.3 20.4 27.9 0.0 0.0 182.6 74.0
7/3/2018 29.8 19.9 25.3 0.0 9.2 182.6 74.0
7/2/2018 34.3 22.5 28.8 0.0 9.2 182.6 68.2
7/1/2018 35.3 21.8 28.9 0.0 9.2 182.6 68.7
6/30/2018 35.1 23.0 28.9 0.0 9.2 182.6 71.0
6/29/2018 33.3 19.7 27.3 0.0 18.4 182.6 69.4
6/28/2018 29.4 18.4 23.2 0.0 18.4 182.6 80.6
6/27/2018 26.7 19.6 21.9 9.2 18.4 182.6 89.6
6/26/2018 24.1 10.7 18.6 0.0 18.0 173.4 77.9
6/25/2018 22.7 13.1 17.7 0.0 24.2 173.4 76.1
6/24/2018 25.3 15.3 20.6 0.0 33.4 173.4 84.4
6/23/2018 27.4 18.9 21.7 9.2 33.4 173.4 86.3
6/22/2018 21.8 17.2 18.9 0.0 26.8 164.2 79.3
6/21/2018 23.9 13.3 19.4 0.0 26.8 164.2 74.3
6/20/2018 22.6 16.1 18.6 8.8 26.8 164.2 82.8
6/19/2018 24.0 18.1 20.8 6.2 18.0 155.4 79.9
6/18/2018 35.0 22.8 28.9 9.2 11.8 149.2 71.8
6/17/2018 36.1 17.8 27.1 0.0 2.6 140.0 70.6
6/16/2018 29.4 18.5 22.8 2.6 7.4 140.0 71.4
6/15/2018 27.2 12.2 20.9 0.0 6.6 137.4 53.9
6/14/2018 30.5 13.0 22.8 0.0 6.6 137.4 43.1
6/13/2018 30.3 17.8 24.2 0.0 6.6 137.4 67.9
6/12/2018 25.1 15.8 20.0 0.0 6.6 137.4 79.8
6/11/2018 22.2 15.5 18.7 0.0 9.0 137.4 67.5
6/10/2018 17.5 15.7 16.5 4.8 9.0 137.4 93.3
6/9/2018 20.8 16.7 17.9 1.8 8.2 132.6 76.5
6/8/2018 26.5 14.6 20.4 0.0 6.4 130.8 64.8
6/7/2018 28.6 14.7 20.9 0.0 6.4 130.8 62.6
6/6/2018 21.5 9.0 15.4 0.0 8.6 130.8 61.9
6/5/2018 20.4 11.4 16.6 2.4 8.6 130.8 68.5
6/4/2018 23.9 14.5 18.6 0.0 6.2 128.4 55.8
6/3/2018 23.7 11.8 18.2 4.0 6.2 128.4 79.0
6/2/2018 23.4 13.7 16.5 0.0 2.2 124.4 76.5
6/1/2018 30.5 14.5 23.1 0.0 2.4 124.4 73.9
5/31/2018 33.4 20.8 26.1 2.2 2.4 124.4 73.6
5/30/2018 29.1 18.5 24.2 0.0 0.2 122.2 70.1
5/29/2018 30.2 19.0 23.9 0.0 0.2 122.2 67.0
5/28/2018 34.1 20.1 27.2 0.0 6.0 122.2 60.0
5/27/2018 30.7 15.1 23.0 0.0 13.8 122.2 78.7
5/26/2018 27.4 16.1 21.2 0.2 14.0 122.2 75.5
5/25/2018 30.5 13.6 22.5 0.0 17.8 122.0 54.8
5/24/2018 29.3 11.4 20.6 0.0 17.8 122.0 58.2
5/23/2018 24.5 9.9 16.9 0.0 17.8 122.0 79.2
5/22/2018 25.8 12.6 17.3 5.8 17.8 122.0 86.4
5/21/2018 18.1 7.9 12.8 7.8 27.4 116.2 74.6
5/20/2018 18.5 10.5 15.4 0.2 25.6 108.4 83.8
5/19/2018 27.2 12.0 18.5 4.0 34.6 108.2 81.6
5/18/2018 17.9 10.3 14.0 0.0 56.0 104.2 58.6
5/17/2018 25.7 10.5 17.4 0.0 65.2 104.2 64.1
5/16/2018 22.2 9.5 15.9 0.0 65.8 104.2 67.6
5/15/2018 23.8 12.2 18.5 15.4 72.6 104.2 75.3
5/14/2018 23.7 10.2 15.6 6.0 57.2 88.8 83.2
5/13/2018 16.4 6.9 11.0 9.2 51.2 82.8 76.6
5/12/2018 10.4 5.8 8.1 25.4 44.6 73.6 91.7
5/11/2018 8.0 4.7 6.0 9.2 19.2 48.2 79.1
5/10/2018 23.0 8.4 18.1 0.6 12.0 39.0 70.9
5/9/2018 26.3 7.2 17.6 6.8 29.2 38.4 64.7
5/8/2018 21.5 4.9 14.0 0.0 31.6 31.6 57.1
5/7/2018 16.9 7.4 12.4 0.0 31.6 31.6 65.3
5/6/2018 24.8 11.1 15.5 2.6 31.6 31.6 73.2
5/5/2018 26.0 9.7 17.3 0.0 29.0 29.0 62.1
5/4/2018 25.1 11.8 18.5 2.0 34.0 29.0 62.9
5/3/2018 25.0 13.4 17.4 17.8 32.2 27.0 84.4
5/2/2018 28.5 12.9 20.2 9.2 14.4 9.2 54.0
5/1/2018 28.0 7.2 17.9 0.0 8.4 0.0 42.8